{"data":{"norad_id":57903,"epoch":"2026-05-24T23:11:08.308032Z","epoch_age_seconds":78255,"freshness":"FRESH","line1":"1 57903U 23146N   26144.96606838 -.00000720  00000+0 -16625-4 0  9997","line2":"2 57903  43.0005 243.2632 0001288 277.3592  82.7113 15.27585490147666","mean_motion":15.2758549,"eccentricity":0.0001288,"inclination_deg":43.0005,"raan_deg":243.2632,"arg_perigee_deg":277.3592,"mean_anomaly_deg":82.7113,"bstar":-1.6625e-5,"rev_number":14766,"period_min":94.266409927735,"perigee_km":482.14893840204,"apogee_km":483.9163757057,"semimajor_km":6861.1696570539,"source":"CELESTRAK","updated_at":"2026-05-25T13:38:18.454331Z"}}